Starlink 5839

operational
NORAD ID: 57051 Int'l Des: 2023-088 Owner: SPXS Country: US Constellation: starlink
LEOCIRCULAR

Über Starlink 5839

Beschreibung wird geladen...

Live-Position

3D-Globus wird geladen...

Nächste Überflüge

Höhenverlauf

Altitude vs Time

uPlot chart will show altitude changes over time

Zweizeiliger Elementsatz

1 57051U 23088D 25260.22619799 -.00000520 00000-0 -23448-4 0 9993
2 57051 43.0032 330.2573 0001088 258.4480 101.6240 15.02531399124271
Epoch: 17. Sept. 2025 • Age: 18 hours

Aktueller Status

Höhe 560.3 km
Geschwindigkeit 7.59 km/s
Subsatellitenpunkt 29.80°N, 18.97°E
Startdatum 22. Juni 2023
Alter 2.2 years
Typ internet

Technische Details

Klassifizierung Payload
Masse 305.00 kg
Trockenmasse 290.00 kg
Gesamtmasse 305.00 kg
Länge 0.20 m
Durchmesser 2.80 m
Spannweite 9.00 m
Form Box + pan
Hersteller SPXS
Bus-Typ Starlink
Phasenstatus In Orbit
Besitzer/Staat SPXS/US

Große Konstellationen

Loading constellations...